Location: Aalen
(48.8330°N, 10.1000°E)
Time: 18:28:33
(UTC+02:00)

Transit 4A - Pass Details

Date: 04 August 2021
Orbit: 871 x 974 km, 66.8° (Epoch: 16 September)

Event Time Altitude Azimuth Distance (km) Brightness Sun altitude
Rises 02:45:45 0° 259° (W) 3,476 - -21.6°
Exits shadow 02:47:59 - 269° (W) 2,748 10.1 -21.5°
Reaches altitude 10° 02:48:43 10° 273° (W) 2,531 10.0 -21.4°
Maximum altitude 02:53:27 25° 327° (NNW) 1,694 9.6 -21.1°
Drops below altitude 10° 02:58:12 10° 22° (NNE) 2,530 11.4 -20.8°
Sets 03:01:10 0° 36° (NE) 3,475 12.4 -20.6°
